Location: Unspecified
(0.0000°N, 0.0000°E)
Time: 19:10:50
(UTC+00:00)

Courier 1B Rocket - Pass Details

Date: 27 April 2024
Orbit: 920 x 1201 km, 28.2° (Epoch: 19 May)

Event Time Altitude Azimuth Distance (km) Brightness Sun altitude
Rises 21:14:36 0° 244° (WSW) 3,806 8.5 -47.3°
Reaches altitude 10° 21:17:15 10° 245° (WSW) 2,892 7.8 -47.9°
Enters shadow 21:17:28 11° 245° (WSW) 2,820 7.7 -47.9°
